TimeCDT,TemperatureF,Dew PointF,Humidity,Sea Level PressureIn,VisibilityMPH,Wind Direction,Wind SpeedMPH,Gust SpeedMPH,PrecipitationIn,Events,Conditions,WindDirDegrees,DateUTC
4:35 PM,42.8,35.6,76,30.05,10.0,NNW,10.4,17.3,N/A,,Overcast,340,2013-10-22 21:35:00
4:55 PM,42.8,35.6,76,30.05,10.0,NNW,10.4,-,N/A,,Overcast,330,2013-10-22 21:55:00
5:15 PM,42.8,33.8,70,30.06,10.0,NNW,9.2,-,N/A,,Overcast,340,2013-10-22 22:15:00
5:35 PM,42.8,33.8,70,30.07,10.0,North,10.4,-,N/A,,Overcast,350,2013-10-22 22:35:00
5:55 PM,42.8,33.8,70,30.07,10.0,North,10.4,-,N/A,,Overcast,350,2013-10-22 22:55:00
6:15 PM,41.0,33.8,76,30.08,10.0,North,6.9,12.7,N/A,,Overcast,350,2013-10-22 23:15:00
6:35 PM,41.0,33.8,76,30.08,10.0,North,9.2,-,N/A,,Overcast,360,2013-10-22 23:35:00
6:55 PM,41.0,33.8,76,30.08,10.0,North,8.1,13.8,N/A,,Overcast,350,2013-10-22 23:55:00
7:15 PM,41.0,33.8,76,30.09,10.0,NNW,6.9,-,N/A,,Overcast,340,2013-10-23 00:15:00
7:35 PM,41.0,33.8,76,30.09,10.0,NNW,8.1,-,N/A,,Overcast,340,2013-10-23 00:35:00
7:55 PM,41.0,33.8,76,30.10,10.0,North,6.9,-,N/A,,Overcast,350,2013-10-23 00:55:00
8:15 PM,41.0,33.8,76,30.10,10.0,North,9.2,-,N/A,,Overcast,350,2013-10-23 01:15:00
8:35 PM,41.0,33.8,76,30.11,10.0,NNW,9.2,-,N/A,,Overcast,340,2013-10-23 01:35:00
8:55 PM,41.0,33.8,76,30.10,10.0,NNW,10.4,-,N/A,,Overcast,330,2013-10-23 01:55:00
9:35 PM,41.0,33.8,76,30.11,10.0,NNW,8.1,15.0,N/A,,Overcast,330,2013-10-23 02:35:00
10:15 PM,39.2,33.8,81,30.11,10.0,NNW,8.1,-,N/A,,Overcast,340,2013-10-23 03:15:00
10:35 PM,39.2,33.8,81,30.12,10.0,NNW,6.9,-,N/A,,Overcast,340,2013-10-23 03:35:00
10:55 PM,39.2,32.0,75,30.11,10.0,NNW,6.9,-,N/A,,Mostly Cloudy,340,2013-10-23 03:55:00
11:15 PM,39.2,32.0,75,30.11,10.0,North,5.8,-,N/A,,Mostly Cloudy,350,2013-10-23 04:15:00
11:35 PM,37.4,33.8,87,30.10,10.0,NNW,3.5,-,N/A,,Overcast,340,2013-10-23 04:35:00
11:55 PM,39.2,32.0,75,30.10,10.0,NNW,6.9,-,N/A,,Overcast,340,2013-10-23 04:55:00